Location: Gälforsberget
(66.6500°N, 22.4167°E)
Time: 20:55:40
(UTC+00:00)

Cosmos 1300 Rocket - Pass Details

Date: 11 April 2026
Orbit: 596 x 618 km, 82.5° (Epoch: 11 May)

Event Time Altitude Azimuth Distance (km) Brightness Sun altitude
Exits shadow 22:17:16 14° 224° (SW) 1,686 5.4 -14.7°
Maximum altitude 22:20:47 51° 298° (WNW) 762 4.2 -14.7°
Drops below altitude 10° 22:25:01 10° 15° (NNE) 1,954 7.4 -14.8°
Sets 22:27:17 0° 21° (NNE) 2,862 8.3 -14.8°
